STARLINK-36779

Last updated on Mon Mar 23 2026 00:02:07 GMT+0000 (Coordinated Universal Time)

1 67869U 26034V 26080.91873530 .00397618 00000+0 19155-2 0 9999 2 67869 53.1584 149.9014 0000663 37.5527 322.5542 15.80998986 5872
UTC large
Height (km)
Speed (km/s)
/
Latitude / Longitude
Inclination (degrees)
Orbital Period (minutes)
Azimuth
Elevation
Range (km)
Doppler Factor

Next 0 passes for location: London (51.5072 / 0.1276)

Sorry there are no passes over London.